Regional Weather Roundup
Issued by NWS Kansas City/Pleasant Hill, MO

Home | Current Version | Previous Version | Text Only | Print | Product List | Glossary On
Versions: 1 2 3 4 5 6 7 8 9 10 11 12 13 14 15 16 17 18 19 20 21 22 23 24 25 26 27 28 29 30 31 32 33 34 35 36 37 38 39 40 41 42 43 44 45 46 47 48 49 50
000
ASUS43 KEAX 220510
RWREAX

WEATHER ROUNDUP FOR EASTERN KANSAS AND NORTHWEST MISSOURI
NATIONAL WEATHER SERVICE KANSAS CITY/PLEASANT HILL MO
1200 AM CDT WED OCT 22 2014

KSZ040-057-103>105-MOZ028-029-037-043-220600-
...KANSAS CITY METROPOLITAN AREA...

CITY           SKY/WX    TMP DP  RH WIND       PRES   REMARKS
K.C. INTL      CLEAR     57  45  64 SE14      30.12R
K.C. DOWNTOWN  CLEAR     58  45  62 E8        30.12R
LEES SUMMIT    CLEAR     55  44  66 E9        30.13S
OLATHE - IXD   CLEAR     57  45  64 SE6       30.12R
OLATHE - OJC   CLEAR     57  44  62 SE6       30.11S
LAWRENCE       CLEAR     50  43  77 E3        30.11R

$$

MOZ001>008-011>017-020>025-030>033-038>040-044>046-053-054-220600-
...NORTHERN AND CENTRAL MISSOURI...

CITY           SKY/WX    TMP DP  RH WIND       PRES   REMARKS
ST. JOSEPH     CLEAR     56  45  66 SE9       30.12R
MOSBY          CLEAR     54  45  71 E6        30.14R
WHITEMAN AFB   CLEAR     51  45  78 SE7       30.14S
CLINTON        CLEAR     54  46  76 E6        30.14S
SEDALIA        CLEAR     53  45  74 E6        30.17R
WARSAW         NOT AVBL
MARSHALL       CLEAR     54  46  76 E6        30.17S HAZE
CHILLICOTHE      N/A     53  43  68 SE5       30.18R
MOBERLY        CLEAR     48  39  71 E6        30.19S
KIRKSVILLE     CLEAR     47  41  80 E8        30.20R

$$

MOZ041-047>049-056>058-063>065-088>090-097-220600-
...EASTERN AND SOUTHERN MISSOURI...

CITY           SKY/WX    TMP DP  RH WIND       PRES   REMARKS
ST. LOUIS INTL CLEAR     51  40  65 E9        30.21R
SPIRIT OF STL  CLEAR     44  42  93 CALM      30.20R
COLUMBIA       CLEAR     51  42  71 E7        30.18R
JEFFERSON CITY CLEAR     50  43  77 SE6       30.18R
MEXICO         CLEAR     48  45  87 E3        30.19S
HANNIBAL       CLEAR     50  37  62 E7        30.21S
ROLLA          CLEAR     51  43  74 E9        30.16R
LEBANON        CLEAR     52  45  76 E6        30.17S HAZE
OSAGE BEACH    CLEAR     54  43  66 E3        30.16S
SPRINGFIELD    CLEAR     53  44  71 E6        30.13S
BRANSON        CLEAR     48  46  93 SE3       30.14F
NEVADA         CLEAR     52  45  76 SE6       30.13S
JOPLIN         CLEAR     57  47  69 E7        30.11F
WEST PLAINS    CLEAR     52  44  74 E3        30.17S

$$

IAZ060-094-KSZ022-034>040-054-083-096-NEZ052-066-093-220600-
...KANSAS...SOUTHEAST NEBRASKA AND IOWA...

CITY           SKY/WX    TMP DP  RH WIND       PRES   REMARKS
TOPEKA         CLEAR     57  47  69 E7        30.09S
MANHATTAN      CLEAR     62  54  74 CALM      30.05S
EMPORIA        CLEAR     58  52  80 SE6       30.08R
CHANUTE        CLEAR     59  50  72 SE8       30.09S
WICHITA        CLEAR     66  60  81 SE10      30.04F
OMAHA          PTCLDY    58  44  60 SE16      30.08S
LINCOLN        CLEAR     61  42  49 SE13      30.05S
FALLS CITY     MOCLDY    54  43  66 SE9       30.08S
LAMONI         CLEAR     51  42  71 SE6       30.16R
DES MOINES     CLEAR     52  40  63 SE10      30.17S

$$




USA.gov is the U.S. government's official web portal to all federal, state and local government web resources and services.